Location: Antioch Baptist Church
(32.6696°N, 85.7327°W)
Time: 12:07:48
(UTC+00:00)

Aureole 1 Rocket - Pass Details

Date: 14 July 2020
Orbit: 377 x 1380 km, 73.9° (Epoch: 08 August)

Event Time Altitude Azimuth Distance (km) Brightness Sun altitude
Exits shadow 07:33:45 46° 8° (N) 926 4.2 -30.2°
Drops below altitude 10° 07:37:38 10° 15° (NNE) 2,384 6.9 -29.8°
Sets 07:40:27 0° 17° (NNE) 3,502 8.0 -29.6°
